TimeEST,TemperatureF,Dew PointF,Humidity,Sea Level PressureIn,VisibilityMPH,Wind Direction,Wind SpeedMPH,Gust SpeedMPH,PrecipitationIn,Events,Conditions,WindDirDegrees,DateUTC
12:38 AM,39.2,39.2,100,30.08,10.0,NW,5.8,-,N/A,,Overcast,310,2013-01-14 05:38:00
12:51 AM,39.2,39.2,100,30.08,10.0,WNW,11.5,-,N/A,,Overcast,300,2013-01-14 05:51:00
1:10 AM,39.2,39.2,100,30.09,10.0,NW,11.5,-,N/A,,Overcast,310,2013-01-14 06:10:00
1:40 AM,39.2,39.2,100,30.11,10.0,WNW,8.1,-,N/A,,Overcast,300,2013-01-14 06:40:00
1:51 AM,39.0,37.9,96,30.12,10.0,WNW,15.0,-,N/A,,Overcast,300,2013-01-14 06:51:00
2:51 AM,37.0,37.0,100,30.17,10.0,WNW,13.8,-,N/A,,Overcast,290,2013-01-14 07:51:00
3:51 AM,35.1,34.0,96,30.20,10.0,West,12.7,-,N/A,,Overcast,280,2013-01-14 08:51:00
4:51 AM,33.1,30.0,89,30.22,9.0,West,12.7,-,N/A,,Overcast,270,2013-01-14 09:51:00
5:51 AM,30.9,27.0,85,30.25,10.0,WNW,9.2,-,N/A,,Overcast,300,2013-01-14 10:51:00
6:51 AM,28.9,25.0,85,30.28,10.0,WNW,6.9,-,N/A,,Overcast,290,2013-01-14 11:51:00
7:51 AM,28.9,25.0,85,30.32,10.0,NW,5.8,-,N/A,,Overcast,320,2013-01-14 12:51:00
8:51 AM,28.0,23.0,81,30.39,10.0,West,8.1,-,N/A,,Overcast,280,2013-01-14 13:51:00
9:51 AM,28.0,23.0,81,30.40,10.0,NNW,6.9,-,N/A,,Overcast,340,2013-01-14 14:51:00
10:51 AM,28.9,21.9,75,30.40,10.0,North,8.1,-,N/A,,Overcast,350,2013-01-14 15:51:00
11:51 AM,28.9,21.0,72,30.37,10.0,North,6.9,-,N/A,,Overcast,10,2013-01-14 16:51:00
12:51 PM,30.9,21.9,69,30.30,10.0,NE,5.8,-,N/A,,Overcast,50,2013-01-14 17:51:00
1:51 PM,32.0,21.9,66,30.33,10.0,North,8.1,-,N/A,,Mostly Cloudy,350,2013-01-14 18:51:00
2:51 PM,30.9,21.9,69,30.33,10.0,NNW,11.5,-,N/A,,Mostly Cloudy,340,2013-01-14 19:51:00
3:51 PM,30.0,21.0,69,30.38,10.0,North,12.7,-,N/A,,Mostly Cloudy,350,2013-01-14 20:51:00
4:03 PM,30.2,21.2,69,30.35,10.0,North,9.2,-,N/A,,Overcast,360,2013-01-14 21:03:00
4:43 PM,28.4,19.4,69,30.39,10.0,NNW,8.1,-,N/A,,Overcast,330,2013-01-14 21:43:00
4:51 PM,30.0,19.9,66,30.44,10.0,NNW,9.2,-,N/A,,Overcast,330,2013-01-14 21:51:00
5:27 PM,30.2,21.2,69,30.41,10.0,NNW,8.1,-,N/A,,Overcast,330,2013-01-14 22:27:00
5:51 PM,28.9,19.9,69,30.42,10.0,North,9.2,-,N/A,,Overcast,350,2013-01-14 22:51:00
6:24 PM,28.4,21.2,74,30.36,10.0,ENE,6.9,-,N/A,,Overcast,70,2013-01-14 23:24:00
6:51 PM,28.9,21.0,72,30.40,10.0,NNE,5.8,-,N/A,,Overcast,30,2013-01-14 23:51:00
7:51 PM,28.0,21.0,75,30.41,10.0,NNW,9.2,-,N/A,,Overcast,340,2013-01-15 00:51:00
8:51 PM,28.9,21.0,72,30.39,10.0,NE,5.8,-,N/A,,Overcast,40,2013-01-15 01:51:00
9:51 PM,28.0,21.0,75,30.37,10.0,North,4.6,-,N/A,,Scattered Clouds,350,2013-01-15 02:51:00
10:51 PM,27.0,21.0,78,30.35,10.0,NNW,5.8,-,N/A,,Mostly Cloudy,340,2013-01-15 03:51:00
11:51 PM,27.0,21.0,78,30.36,10.0,North,5.8,-,N/A,,Mostly Cloudy,350,2013-01-15 04:51:00